Pineville, WV

10:08 AM EDT on May 23, 2017 (GMT -0400)
Pineville

Weather History for KI16 - February, 2013

Change the Weather History Date:

Thursday, February 7, 2013

  Actual Average (KBKW) Record (KBKW)
Temperature  
Mean Temperature 42 °F -  
Max Temperature 54 °F 36 °F 70 °F (1918)
Min Temperature 31 °F 20 °F -9 °F (1912)
Degree Days  
Heating Degree Days 22    
Moisture  
Dew Point 35 °F    
Average Humidity 76    
Maximum Humidity 100    
Minimum Humidity 47    
Precipitation  
Precipitation 0.00 in - - ()
Sea Level Pressure  
Sea Level Pressure 30.15 in    
Wind  
Wind Speed - (North)    
Max Wind Speed -    
Max Gust Speed -    
Visibility 10 miles    
Events      
Averages and records for this station are not official NWS values.
T = Trace of Precipitation, MM = Missing Value Source: NWS Daily Summary

Daily Weather History Graph

Daily Weather History Graph

Search for Another Location

Airport or City:

Trip Planner

Search our weather history database for the weather conditions in past years. The results will help you decide how hot, cold, wet, or windy it might be!

Date:

Astronomy

Feb. 07, 2013 Rise Set
Actual Time 7:24 AM EST 5:57 PM EST
Civil Twilight 6:56 AM EST 6:24 PM EST
Nautical Twilight 6:25 AM EST 6:55 PM EST
Astronomical Twilight 5:55 AM EST 7:25 PM EST
Moon 5:00 AM EST (2/7) 3:21 PM EST (2/7)
Length of Visible Light 11h 27m
Length of Day
10h 33m
Waning Crescent, 9% of the Moon is Illuminated
Feb 7
Waning Crescent
Feb 10
New
Feb 17
First Quarter
Feb 25
Full
Mar 4
Last Quarter

Hourly Weather History & Observations

Time (EST) Temp. Dew Point Humidity Pressure Visibility Wind Dir Wind Speed Gust Speed Precip Events Conditions
12:15 AM 31.8 °F 31.6 °F 99% 30.25 in 10.0 mi North - - N/A   Clear
12:35 AM 32.0 °F 32.0 °F 100% 30.25 in 10.0 mi North - - N/A   Clear
12:55 AM 32.4 °F 31.5 °F 96% 30.25 in 10.0 mi North - - N/A   Clear
1:15 AM 32.0 °F 31.3 °F 97% 30.25 in 10.0 mi North - - N/A   Clear
1:35 AM 32.0 °F 31.3 °F 97% 30.23 in 10.0 mi North - - N/A   Clear
1:55 AM 32.0 °F 31.5 °F 98% 30.23 in 10.0 mi North - - N/A   Clear
2:15 AM 32.0 °F 31.6 °F 99% 30.23 in 10.0 mi North - - N/A   Clear
2:35 AM 32.0 °F 31.6 °F 99% 30.23 in 10.0 mi North - - N/A   Clear
2:55 AM 32.0 °F 31.6 °F 99% 30.22 in 10.0 mi North - - N/A   Clear
3:15 AM 32.0 °F 32.0 °F 100% 30.22 in 10.0 mi North - - N/A   Clear
3:35 AM 32.4 °F 32.0 °F 99% 30.21 in 10.0 mi North - - N/A   Clear
3:55 AM 32.4 °F 32.0 °F 99% 30.23 in 10.0 mi North - - N/A   Clear
4:15 AM 32.9 °F 32.0 °F 96% 30.23 in 10.0 mi North - - N/A   Clear
4:35 AM 32.9 °F 32.0 °F 96% 30.23 in 10.0 mi North - - N/A   Clear
4:55 AM 32.9 °F 32.2 °F 97% 30.23 in 10.0 mi North - - N/A   Clear
5:15 AM 32.9 °F 32.2 °F 97% 30.23 in 10.0 mi North - - N/A   Clear
5:35 AM 32.9 °F 32.2 °F 97% 30.23 in 10.0 mi North - - N/A   Clear
5:55 AM 33.1 °F 32.4 °F 97% 30.24 in 10.0 mi North - - N/A   Clear
6:15 AM 33.3 °F 32.5 °F 97% 30.25 in 10.0 mi North - - N/A   Clear
6:35 AM 33.8 °F 32.5 °F 95% 30.24 in 10.0 mi North - - N/A   Clear
6:55 AM 34.0 °F 32.9 °F 96% 30.24 in 10.0 mi North - - N/A   Clear
7:15 AM 34.3 °F 32.9 °F 94% 30.24 in 10.0 mi North - - N/A   Clear
7:35 AM 34.9 °F 32.9 °F 92% 30.24 in 10.0 mi North - - N/A   Clear
7:55 AM 35.1 °F 32.9 °F 92% 30.24 in 10.0 mi North - - N/A   Scattered Clouds
8:15 AM 35.8 °F 33.1 °F 90% 30.25 in 10.0 mi North - - N/A   Mostly Cloudy
9:15 AM 40.8 °F 34.3 °F 78% 30.23 in 10.0 mi North - - N/A   Scattered Clouds
9:35 AM 43.3 °F 31.3 °F 62% 30.23 in 10.0 mi North - - N/A   Clear
9:55 AM 44.2 °F 32.2 °F 63% 30.23 in 10.0 mi North - - N/A   Clear
10:15 AM 45.7 °F 31.3 °F 57% 30.22 in 10.0 mi North - - N/A   Clear
10:35 AM 46.8 °F 31.3 °F 55% 30.21 in 10.0 mi North - - N/A   Clear
10:55 AM 47.7 °F 31.3 °F 53% 30.21 in 10.0 mi North - - N/A   Clear
11:15 AM 49.5 °F 32.0 °F 51% 30.20 in 10.0 mi North - - N/A   Clear
11:35 AM 50.4 °F 32.5 °F 50% 30.20 in 10.0 mi North - - N/A   Clear
12:15 PM 52.0 °F 33.1 °F 49% 30.17 in 10.0 mi North - - N/A   Clear
12:35 PM 53.1 °F 34.0 °F 48% 30.16 in 10.0 mi North - - N/A   Clear
12:55 PM 54.3 °F 34.5 °F 47% 30.14 in 10.0 mi North - - N/A   Clear
1:15 PM 54.0 °F 35.6 °F 50% 30.13 in 10.0 mi North - - N/A   Clear
1:35 PM 54.0 °F 36.3 °F 51% 30.13 in 10.0 mi North - - N/A   Clear
1:55 PM 53.8 °F 37.0 °F 53% 30.12 in 10.0 mi North - - N/A   Clear
2:15 PM 54.1 °F 37.2 °F 53% 30.11 in 10.0 mi North - - N/A   Clear
2:35 PM 54.0 °F 37.9 °F 55% 30.10 in 10.0 mi North - - N/A   Clear
2:55 PM 53.8 °F 37.9 °F 55% 30.09 in 10.0 mi North - - N/A   Clear
3:15 PM 54.0 °F 38.5 °F 56% 30.09 in 10.0 mi North - - N/A   Clear
3:35 PM 53.2 °F 38.3 °F 57% 30.09 in 10.0 mi North - - N/A   Clear
3:55 PM 52.5 °F 38.3 °F 58% 30.09 in 10.0 mi North - - N/A   Clear
4:15 PM 51.8 °F 37.9 °F 59% 30.09 in 10.0 mi North - - N/A   Clear
4:35 PM 50.9 °F 37.9 °F 61% 30.10 in 10.0 mi North - - N/A   Clear
4:55 PM 50.2 °F 38.1 °F 63% 30.10 in 10.0 mi North - - N/A   Clear
5:15 PM 49.5 °F 37.8 °F 64% 30.10 in 10.0 mi North - - N/A   Clear
5:35 PM 49.1 °F 37.9 °F 65% 30.09 in 10.0 mi North - - N/A   Clear
5:55 PM 48.6 °F 37.9 °F 67% 30.08 in 10.0 mi North - - N/A   Clear
6:15 PM 47.8 °F 38.3 °F 70% 30.08 in 10.0 mi North - - N/A   Clear
6:35 PM 47.8 °F 38.3 °F 70% 30.09 in 10.0 mi North - - N/A   Clear
6:55 PM 47.8 °F 38.7 °F 70% 30.08 in 10.0 mi North - - N/A   Clear
7:15 PM 47.5 °F 39.2 °F 73% 30.08 in 10.0 mi North - - N/A   Clear
7:35 PM 47.3 °F 39.2 °F 73% 30.08 in 10.0 mi North - - N/A   Scattered Clouds
7:55 PM 46.9 °F 39.2 °F 74% 30.08 in 10.0 mi North - - N/A   Mostly Cloudy
8:15 PM 46.8 °F 39.4 °F 75% 30.06 in 10.0 mi North - - N/A   Scattered Clouds
8:35 PM 46.6 °F 39.4 °F 76% 30.06 in 10.0 mi North - - N/A   Mostly Cloudy
8:55 PM 46.4 °F 39.4 °F 77% 30.05 in 10.0 mi North - - N/A   Mostly Cloudy
9:15 PM 46.4 °F 39.2 °F 76% 30.05 in 10.0 mi North - - N/A   Overcast
9:35 PM 46.4 °F 39.6 °F 77% 30.05 in 10.0 mi North - - N/A   Overcast
9:55 PM 46.4 °F 39.6 °F 77% 30.05 in 10.0 mi North - - N/A   Overcast
10:15 PM 46.0 °F 39.4 °F 78% 30.04 in 10.0 mi North - - N/A   Mostly Cloudy
10:35 PM 45.9 °F 39.4 °F 78% 30.03 in 10.0 mi North - - N/A   Mostly Cloudy
10:55 PM 45.3 °F 39.4 °F 80% 30.03 in 10.0 mi North - - N/A   Overcast
11:15 PM 45.7 °F 39.4 °F 79% 30.02 in 10.0 mi North - - N/A   Overcast
11:35 PM 45.5 °F 39.2 °F 79% 30.02 in 10.0 mi North - - N/A   Overcast
11:55 PM 45.0 °F 39.2 °F 80% 30.01 in 10.0 mi North - - N/A   Overcast